Home > Weather > Sinsheim > Past weeks

Flag for Germany Past Weather in Sinsheim, Baden-Württemberg, Germany — Yesterday and Last 2 Weeks

Now
73 °F

Broken clouds.


Feels Like: 76 °F
Forecast: 62 / 80 °F
Wind: 9 mph from Southwest

Location: Mannheim City

Current Time: Jul 29, 2016 at 12:24:24 PM

Latest Report: Jul 29, 2016 at 11:50 AM


Visibility: N/A

Pressure: 29.98 "Hg

Humidity: 65%

Dew Point: 61 °F

Location of SinsheimLocation

Past Weather in Sinsheim — Graph

°F

Sinsheim Temperature Yesterday

Maximum temperature yesterday: 77 °F (at 3:20 PM)
Minimum temperature yesterday: 64 °F (at 6:20 AM)
Average temperature yesterday: 73 °F

High & Low Weather Summary for the Past Weeks

 TemperatureHumidityPressure
High95 °F (Jul 20, 4:50 PM)100% (Jul 21, 6:50 AM)30.33 "Hg (Jul 21, 6:50 AM)
Low55 °F (Jul 16, 7:20 AM)20% (Jul 20, 5:50 PM)29.89 "Hg (Jul 20, 5:50 PM)
Average74 °F62%30.09 "Hg
* Reported Jul 14 10:20 AM — Jul 29 10:50 AM, Sinsheim, Weather by CustomWeather, © 2016

Note: Actual official high and low records may vary slightly from our data, if they occured in-between our weather recording intervals... More about our weather records

Advertising

Sinsheim Weather History for the Previous 24 Hours

Scroll right to see more
 ConditionsComfort  
Time TempWeatherWind HumidityBarometerVisibility
10:50 AM
Fri, Jul 29
73 °FPartly sunny.8 mph61%29.98 "HgN/A
10:20 AM72 °FScattered clouds.9 mph65%29.98 "HgN/A
9:50 AM70 °FScattered clouds.8 mph73%29.98 "HgN/A
9:20 AM70 °FPartly sunny.9 mph73%30.01 "HgN/A
8:50 AM70 °FPartly sunny.10 mph73%29.98 "HgN/A
8:20 AM68 °FPassing clouds.7 mph83%29.98 "HgN/A
7:50 AM68 °FPassing clouds.7 mph83%29.98 "HgN/A
7:20 AM68 °FPassing clouds.5 mph83%29.98 "HgN/A
6:50 AM66 °FPassing clouds.6 mph94%29.98 "HgN/A
6:20 AM66 °FPassing clouds.5 mph94%29.98 "HgN/A
5:50 AM66 °FPassing clouds.6 mph94%29.98 "HgN/A
9:20 PM
Thu, Jul 28
72 °FSunny.5 mph73%29.98 "Hg10 mi
8:50 PM72 °FSunny.8 mph73%29.98 "Hg10 mi
8:20 PM75 °FDrizzle. Partly sunny.9 mph57%29.98 "HgN/A
7:50 PM75 °FPassing clouds.7 mph57%29.98 "HgN/A
7:20 PM77 °FPassing clouds.6 mph51%29.95 "HgN/A
6:50 PM77 °FPassing clouds.7 mph51%29.98 "HgN/A
6:20 PM77 °FPassing clouds.8 mph51%29.98 "HgN/A
5:50 PM77 °FPassing clouds.6 mph54%29.98 "HgN/A
5:20 PM77 °FSunny.8 mph51%29.98 "Hg10 mi
4:50 PM77 °FPassing clouds.8 mph51%30.01 "HgN/A
4:20 PM75 °FPassing clouds.7 mph54%30.01 "HgN/A
3:50 PM75 °FPassing clouds.8 mph54%30.01 "HgN/A
3:20 PM77 °FBroken clouds.9 mph54%30.01 "HgN/A
2:50 PM75 °FPartly sunny.7 mph54%30.04 "HgN/A
2:20 PM75 °FBroken clouds.8 mph54%30.04 "HgN/A
1:50 PM75 °FPartly sunny.8 mph57%30.04 "HgN/A
1:20 PM75 °FBroken clouds.7 mph61%30.04 "HgN/A
12:50 PM73 °FLight rain. Broken clouds.6 mph65%30.04 "HgN/A
12:20 PM73 °FPartly sunny.6 mph57%30.04 "HgN/A
Weather by CustomWeather, © 2016

See weather overviewHow to use our weather pages